Asheville, NC

8:41 AM EDT on March 26, 2017 (GMT -0400)
Asheville Regional

Weather History for KAVL - February, 2010

Change the Weather History Date:

Saturday, February 13, 2010

  Actual Average Record
Temperature  
Mean Temperature 25 °F 40 °F  
Max Temperature 30 °F 51 °F 75 °F (1949)
Min Temperature 20 °F 29 °F 2 °F (1905)
Degree Days  
Heating Degree Days 40 25  
Month to date heating degree days 430 339  
Since 1 July heating degree days 3112 2866  
Cooling Degree Days 0 0  
Month to date cooling degree days 0 0  
Year to date cooling degree days 0 0  
Moisture  
Dew Point 17 °F    
Average Humidity 67    
Maximum Humidity 81    
Minimum Humidity 53    
Precipitation  
Precipitation T in 0.13 in 2.79 in (1984)
Month to date precipitation 2.88 1.72  
Year to date precipitation 9.88 5.39  
Snow  
Snow T in 0.10 in 6.50 in (1960)
Month to date snowfall 5.8 1.1  
Since 1 July snowfall 29.4 6.2  
Snow Depth 3.00 in    
Sea Level Pressure  
Sea Level Pressure 29.84 in    
Wind  
Wind Speed 12 mph (North)    
Max Wind Speed 23 mph    
Max Gust Speed 30 mph    
Visibility 10 miles    
Events      
T = Trace of Precipitation, MM = Missing Value Source: NWS Daily Summary

Daily Weather History Graph

Daily Weather History Graph

Search for Another Location

Airport or City:

Trip Planner

Search our weather history database for the weather conditions in past years. The results will help you decide how hot, cold, wet, or windy it might be!

Date:

Astronomy

Feb. 13, 2010 Rise Set
Actual Time 7:18 AM EST 6:10 PM EST
Civil Twilight 6:52 AM EST 6:36 PM EST
Nautical Twilight 6:22 AM EST 7:06 PM EST
Astronomical Twilight 5:53 AM EST 7:36 PM EST
Moon 6:53 AM EST (2/13) 6:01 PM EST (2/13)
Length of Visible Light 11h 43m
Length of Day
10h 51m
Waning Crescent, 0% of the Moon is Illuminated
Feb 13
Waning Crescent
Feb 13
New
Feb 21
First Quarter
Feb 28
Full
Mar 7
Last Quarter

Hourly Weather History & Observations

Time (EST) Temp. Windchill Dew Point Humidity Pressure Visibility Wind Dir Wind Speed Gust Speed Precip Events Conditions
12:54 AM 25.0 °F 15.5 °F 19.9 °F 81% 29.78 in 10.0 mi North 9.2 mph - N/A   Overcast
1:54 AM 25.0 °F 14.2 °F 19.9 °F 81% 29.78 in 10.0 mi North 11.5 mph - N/A   Overcast
2:29 AM 24.8 °F 13.4 °F 19.4 °F 80% 29.74 in 10.0 mi North 12.7 mph - N/A   Overcast
2:54 AM 25.0 °F 16.3 °F 19.0 °F 78% 29.77 in 10.0 mi North 8.1 mph - N/A   Overcast
3:54 AM 23.0 °F 9.6 °F 18.0 °F 81% 29.76 in 10.0 mi NNW 16.1 mph 21.9 mph N/A   Scattered Clouds
4:51 AM 23.0 °F 9.2 °F 17.6 °F 80% 29.73 in 10.0 mi North 17.3 mph 23.0 mph N/A   Mostly Cloudy
4:54 AM 23.0 °F 9.6 °F 17.1 °F 78% 29.78 in 10.0 mi North 16.1 mph 24.2 mph N/A   Mostly Cloudy
5:22 AM 21.2 °F 7.8 °F 15.8 °F 80% 29.73 in 10.0 mi North 15.0 mph 21.9 mph N/A   Partly Cloudy
5:54 AM 21.9 °F 11.7 °F 15.1 °F 75% 29.79 in 10.0 mi North 9.2 mph 18.4 mph N/A   Clear
6:54 AM 21.0 °F 7.1 °F 15.1 °F 78% 29.80 in 10.0 mi North 16.1 mph 23.0 mph N/A   Clear
7:54 AM 19.9 °F 6.7 °F 14.0 °F 78% 29.83 in 10.0 mi North 13.8 mph - N/A   Clear
8:54 AM 21.9 °F 8.2 °F 14.0 °F 72% 29.86 in 10.0 mi North 16.1 mph - N/A   Clear
9:54 AM 25.0 °F 12.2 °F 14.0 °F 63% 29.87 in 10.0 mi North 16.1 mph - N/A   Overcast
10:54 AM 26.1 °F 14.5 °F 16.0 °F 66% 29.88 in 10.0 mi North 13.8 mph 20.7 mph N/A   Overcast
11:37 AM 26.6 °F 15.2 °F 15.8 °F 64% 29.83 in 10.0 mi North 13.8 mph 25.3 mph 0.00 in   Overcast
11:54 AM 27.0 °F 14.7 °F 17.1 °F 66% 29.87 in 10.0 mi North 16.1 mph 23.0 mph 0.00 in   Overcast
12:54 PM 28.9 °F 17.7 °F 17.1 °F 61% 29.86 in 10.0 mi North 15.0 mph 23.0 mph N/A   Overcast
1:54 PM 28.9 °F 16.5 °F 17.1 °F 61% 29.85 in 10.0 mi North 18.4 mph 26.5 mph N/A   Clear
2:54 PM 30.0 °F 19.5 °F 17.1 °F 59% 29.85 in 10.0 mi North 13.8 mph - N/A   Clear
3:54 PM 30.0 °F 19.5 °F 17.1 °F 59% 29.86 in 10.0 mi North 13.8 mph 19.6 mph N/A   Partly Cloudy
4:54 PM 30.0 °F 20.0 °F 16.0 °F 56% 29.87 in 10.0 mi North 12.7 mph 24.2 mph N/A   Clear
5:54 PM 28.0 °F 20.0 °F 17.1 °F 63% 29.88 in 10.0 mi North 8.1 mph 17.3 mph N/A   Clear
6:54 PM 26.1 °F 15.6 °F 19.0 °F 75% 29.90 in 10.0 mi NNW 11.5 mph - N/A   Clear
7:54 PM 25.0 °F 18.1 °F 19.0 °F 78% 29.91 in 10.0 mi NNW 5.8 mph - N/A   Clear
8:54 PM 25.0 °F 18.1 °F 19.9 °F 81% 29.92 in 10.0 mi North 5.8 mph - N/A   Overcast
9:52 PM 24.8 °F 13.4 °F 19.4 °F 80% 29.87 in 10.0 mi NNW 12.7 mph - N/A   Overcast
9:54 PM 24.1 °F 13.1 °F 19.0 °F 81% 29.92 in 10.0 mi NNW 11.5 mph - N/A   Overcast
10:12 PM 24.8 °F 16.1 °F 19.4 °F 80% 29.88 in 10.0 mi NNW 8.1 mph - N/A   Scattered Clouds
10:54 PM 24.1 °F 15.2 °F 18.0 °F 77% 29.92 in 10.0 mi NNW 8.1 mph - N/A   Clear
11:54 PM 24.1 °F 14.4 °F 17.1 °F 75% 29.90 in 10.0 mi North 9.2 mph - N/A   Clear